User: anonymous   Login
Location: Unspecified
(0.0000°N, 0.0000°E)
Time: 22:19:24
(UTC+00:00)
Language:

ONEWEB-0180 - Orbit

View from above orbital plane
View from above orbital plane
View from above satellite
View from above satellite

Ground track
Ground track

The orbit is defined by the following mean orbital elements,

1 48213U          26145.39598047 +.00000000 +00000-0 +73078-3 0 00002
2 48213  87.8946 294.2404 0001594 111.6915 248.4385 13.14501676    08
Epoch (UTC): 25 May 2026 09:30:12
Eccentricity: 0.0001594
inclination: 87.8946°
perigee height: 1205 km
apogee height: 1207 km
right ascension of ascending node: 294.2404°
argument of perigee: 111.6915°
revolutions per day: 13.14501676
mean anomaly at epoch: 248.4385°

The dashed part of the orbit path shows where the satellite is in the earth's shadow,  

DLR